N9GF Weather Reports


Display with metric or nautical units.
time (UTC)temp
F
wind
direction
speed
MPH
gust
MPH
rain 1hr
in
rain 24hr
in
rain mn
in
humidity
%
barometer
mb
20260506130042 44 76 0.0 0.0 0.00 0.00 0.00 29 1010.6
20260506124540 43 76 0.0 0.0 0.00 0.00 0.00 20 1010.4
20260506123040 42 76 0.0 0.0 0.00 0.00 0.00 100 1010.2
20260506121528 41 76 0.0 0.0 0.00 0.00 0.00 100 1010.0
20260506120035 40 76 0.0 0.0 0.00 0.00 0.00 7 1009.9
20260506114524 40 76 0.0 0.0 0.00 0.00 0.00 17 1009.8
20260506113016 40 76 0.0 0.0 0.00 0.00 0.00 25 1009.6
20260506111513 40 76 0.0 0.0 0.00 0.00 0.00 30 1009.6
20260506110010 40 76 0.0 0.0 0.00 0.00 0.00 36 1009.6
20260506104506 41 76 0.0 0.0 0.00 0.00 0.00 41 1009.3
20260506103006 41 76 0.0 0.0 0.00 0.00 0.00 43 1008.8
20260506101502 41 76 0.0 0.0 0.00 0.00 0.00 45 1008.6
20260506100100 42 76 0.0 0.0 0.00 0.00 0.00 47 1008.5
20260506094558 42 76 0.0 0.0 0.00 0.00 0.00 48 1008.6
20260506093057 42 76 0.0 0.0 0.00 0.00 0.00 50 1008.6
20260506091556 43 76 0.0 0.0 0.00 0.00 0.00 51 1008.5
20260506090053 43 76 0.0 0.0 0.00 0.00 0.00 54 1008.5
20260506084550 44 76 0.0 0.0 0.00 0.00 0.00 55 1008.6
20260506083049 45 76 0.0 0.0 0.00 0.00 0.00 56 1008.3
20260506081550 45 76 0.0 0.0 0.00 0.00 0.00 55 1008.3
20260506073040 46 76 0.0 0.0 0.00 0.00 0.00 53 1008.1
20260506071548 47 76 0.0 0.0 0.00 0.00 0.00 51 1007.9
20260506061533 49 69 0.0 0.0 0.00 0.00 0.00 46 1007.9
20260506044518 51 74 0.0 0.0 0.00 0.00 0.08 43 1007.1
20260506043013 51 355 0.0 0.0 0.00 0.00 0.08 43 1007.5
20260506041502 51 40 0.0 0.0 0.00 0.00 0.08 44 1007.5
20260506040101 51 41 0.0 0.0 0.00 0.00 0.08 45 1007.4
20260506034555 51 348 0.0 0.0 0.00 0.00 0.08 49 1007.1
20260506033051 51 349 0.0 0.0 0.00 0.00 0.08 50 1007.1
20260506031557 51 349 0.0 0.0 0.00 0.00 0.08 50 1006.6
20260506030057 52 349 0.0 0.0 0.00 0.00 0.08 50 1006.7
20260506024538 52 349 0.0 0.0 0.00 0.00 0.08 49 1006.7
20260506023036 52 349 0.0 0.0 0.00 0.00 0.08 48 1006.7
20260506021528 53 349 0.0 0.0 0.00 0.00 0.08 47 1006.4
20260506020024 53 349 0.0 0.0 0.00 0.00 0.08 47 1006.5
20260506014519 53 349 0.0 0.0 0.00 0.00 0.08 44 1006.0
20260506013018 54 349 0.0 0.0 0.00 0.00 0.08 44 1005.9
20260506011511 54 348 0.0 0.0 0.00 0.00 0.08 42 1005.8
20260506010007 54 348 0.0 0.0 0.00 0.00 0.08 41 1005.5
20260506004503 54 348 0.0 0.0 0.00 0.00 0.08 40 1005.4
20260506003059 55 349 0.0 0.0 0.00 0.00 0.08 39 1005.2
20260506001556 55 331 1.0 0.0 0.00 0.00 0.08 39 1005.1
20260506000050 55 344 2.0 0.0 0.00 0.00 0.08 38 1005.3
20260505234608 55 348 0.0 0.0 0.00 0.00 0.08 38 1005.1
20260505233040 55 15 0.0 0.0 0.00 0.00 0.08 37 1005.2
20260505231537 56 360 0.0 0.0 0.00 0.00 0.08 37 1005.2
20260505230032 56 355 1.0 0.0 0.00 0.00 0.08 36 1005.2
20260505224531 56 333 1.0 0.0 0.00 0.00 0.08 35 1005.5
20260505223023 56 13 1.0 0.0 0.00 0.00 0.08 35 1005.4
20260505221519 56 360 1.0 0.0 0.00 0.00 0.08 36 1005.3
20260505220014 56 316 1.0 0.0 0.00 0.00 0.08 35 1005.5
20260505214510 56 355 1.0 0.0 0.00 0.00 0.08 36 1005.7
20260505213006 56 322 1.0 0.0 0.00 0.00 0.08 33 1005.6
20260505211502 56 335 1.0 0.0 0.00 0.00 0.08 32 1005.5
20260505210058 56 344 0.0 0.0 0.00 0.00 0.08 34 1005.6
20260505204552 56 324 1.0 0.0 0.00 0.00 0.08 33 1005.6
20260505203052 56 338 1.0 0.0 0.00 0.00 0.08 33 1005.7
20260505201544 56 360 1.0 0.0 0.00 0.00 0.08 33 1005.8
20260505200045 56 347 0.0 0.0 0.00 0.00 0.08 34 1005.9
20260505194538 56 345 1.0 0.0 0.00 0.00 0.08 35 1005.7
20260505193031 57 346 0.0 0.0 0.00 0.00 0.08 35 1005.9
20260505191527 56 5 1.0 0.0 0.00 0.00 0.08 36 1006.0
20260505190028 56 348 1.0 0.0 0.00 0.00 0.08 35 1006.1
20260505184525 57 10 1.0 0.0 0.00 0.00 0.08 36 1005.9
20260505183037 57 317 1.0 0.0 0.00 0.00 0.08 38 1006.0
20260505181511 57 327 1.0 0.0 0.00 0.00 0.08 38 1005.9
20260505180005 57 27 1.0 0.0 0.00 0.00 0.08 39 1005.9
20260505174601 57 344 1.0 0.0 0.00 0.00 0.08 38 1005.5
20260505173057 57 333 2.0 0.0 0.00 0.00 0.08 38 1005.7
20260505171552 57 323 1.0 0.0 0.00 0.00 0.08 40 1005.5
20260505170048 57 336 1.0 0.0 0.00 0.00 0.08 38 1005.4
20260505164543 57 319 2.0 0.0 0.00 0.00 0.08 40 1005.2
20260505163038 56 333 1.0 0.0 0.00 0.00 0.08 44 1005.8
20260505161535 55 329 1.0 0.0 0.00 0.00 0.08 42 1005.5
20260505153022 52 355 1.0 0.0 0.00 0.00 0.08 39 1005.0
20260505151517 51 355 0.0 0.0 0.00 0.00 0.08 31 1005.2
20260505140109 47 12 0.0 0.0 0.00 0.00 0.08 100 1005.8